Location: Staunton
(38.1490°N, 79.0720°W)
Time: 14:47:10
(UTC-04:00)

ISS - Pass Details

Date: 18 July 2017
Orbit: 400 x 408 km, 51.6° (Epoch: 21 July)

Event Time Altitude Azimuth Distance (km) Brightness Sun altitude
Rises 04:48:11 0° 319° (NW) 2,315 0.0 -13.7°
Reaches altitude 10° 04:51:52 10° 3° (N) 1,456 -0.4 -13.2°
Maximum altitude 04:52:33 11° 15° (NNE) 1,428 -0.2 -13.1°
Drops below altitude 10° 04:53:14 10° 27° (NNE) 1,457 0.1 -13.0°
Sets 04:56:55 0° 70° (ENE) 2,317 1.5 -12.4°
